Flag for Canada

Past Weather in Saint-Georges, Quebec, Canada — Yesterday and Last 2 Weeks

Now
79 °F

Warm.


Feels Like: 80 °F
Forecast: 77 / 61 °F
Wind: 8 mph from South

Location: Beauceville
Current Time: Sep 28, 2020 at 3:56:45 pm
Latest Report: Sep 28, 2020 at 3:00 pm
Visibility: N/A
Pressure29.81 "Hg
Humidity: 46%
Dew Point: 57 °F
Location of Saint-GeorgesLocation

Past Weather in Saint-Georges — Graph

°F

Saint-Georges Temperature Yesterday

Maximum temperature yesterday: 77 °F (at 3:00 pm)
Minimum temperature yesterday: 58 °F (at 6:00 am)
Average temperature yesterday: 67 °F

High & Low Weather Summary for the Past Weeks

 TemperatureHumidityPressure
High79 °F (Sep 26, 3:00 pm)100% (Sep 25, 8:00 am)30.66 "Hg (Sep 25, 8:00 am)
Low27 °F (Sep 21, 6:00 am)27% (Sep 21, 1:00 pm)29.64 "Hg (Sep 23, 1:00 pm)
Average51 °F71%30.09 "Hg
* Reported Sep 13 2:00 pm — Sep 28 2:00 pm, Saint-Georges. Weather by CustomWeather, © 2020

Note: Actual official high and low records may vary slightly from our data, if they occured in-between our weather recording intervals... More about our weather records

Saint-Georges Weather History for the Previous 24 Hours

Scroll right to see more
 ConditionsComfort  
Time TempWeatherWind HumidityBarometerVisibility
2:00 pm
Mon, Sep 28
76 °FMild.1 mph67%29.82 "HgN/A
1:00 pm74 °FMild.3 mph74%29.85 "HgN/A
12:00 pm71 °FMild.1 mph76%29.88 "HgN/A
11:00 am66 °FMild.1 mph88%29.90 "HgN/A
10:00 am65 °FMild.3 mph83%29.91 "HgN/A
9:00 am62 °FMild.No wind83%29.91 "HgN/A
8:00 am57 °FCool.1 mph95%29.91 "HgN/A
7:00 am54 °FCool.2 mph85%29.91 "HgN/A
6:00 am56 °FCool.1 mph96%29.90 "HgN/A
5:00 am58 °FCool.2 mph94%29.90 "HgN/A
4:00 am57 °FCool.2 mph95%29.90 "HgN/A
3:00 am58 °FCool.3 mph93%29.91 "HgN/A
2:00 am59 °FCool.3 mph94%29.91 "HgN/A
1:00 am59 °FCool.1 mph89%29.92 "HgN/A
12:00 am60 °FCool.3 mph92%29.92 "HgN/A
11:00 pm
Sun, Sep 27
63 °FMild.3 mph84%29.90 "HgN/A
10:00 pm65 °FMild.5 mph78%29.88 "HgN/A
9:00 pm64 °FMild.1 mph80%29.87 "HgN/A
8:00 pm68 °FMild.2 mph65%29.85 "HgN/A
7:00 pm70 °FMild.2 mph66%29.84 "HgN/A
6:00 pm74 °FMild.3 mph59%29.83 "HgN/A
5:00 pm76 °FMild.3 mph56%29.82 "HgN/A
4:00 pm76 °FMild.6 mph55%29.83 "HgN/A
3:00 pm77 °FWarm.7 mph52%29.84 "HgN/A
Weather by CustomWeather, © 2020

See weather overview